User: anonymous
Location: Griffin Ranch
(33.6186°N, 110.6622°W)
Time: 13:30:30
(UTC-07:00)
Language:

Cosmos 1812 - Orbit

View from above orbital plane
View from above orbital plane
View from above satellite
View from above satellite

Ground track
Ground track

The orbit data is extracted from the following two-line orbital elements,

1 17295U 87003A   14209.11760006  .00002002  00000-0  12360-3 0  3756
2 17295 082.5257 100.0478 0005865 151.9802 321.7060 15.09359109499468
Epoch (UTC): 28 July 2014 02:49:20
Eccentricity: 0.0005865
inclination: 82.5257°
perigee height: 534 km
apogee height: 542 km
right ascension of ascending node: 100.0478°
argument of perigee: 151.9802°
revolutions per day: 15.09359109
mean anomaly at epoch: 321.7060°
orbit number at epoch: 49946

The dashed part of the orbit path shows where the satellite is in the earth's shadow,  

DLR